SCP
0 0 0 0 0 0 0 0 0 0 0 0 0 0 0 0 0 0 -0 -0 0 0 0 0 0 0 0 0 0 0 0 0 0 0 0 0 0 0 0 0 0 0 0 0
0 0 0 0 0 0 0 0 0 0 0 0 0 0 0 0 0 0 0 0 0 0 0 0 0 0 0 0 0 0 0 0 0 0 0 0 0 0 0 0 0 0 0 0
-0 -0 0 0 0 0 0 0 0 0 0 0 0 0 0 0 0 0 0 0 0 0 0 0 0 0 0 0 0 0 0 0 0 0 0 0 0 0 0 -0 0 0 0 0
0 0 0 0 0 0 0 0 0 0 0 0 0 0 0 0 0 0 0 0 0 0 0 0 0 -0 -0 0 0 0 0 0 0 0 0 0 0 0 0 0 0 0 0 0
0 0 0 0 0 0 0 0 0 0 0 0 0 0 0 0 0 0 0 0 0 0 0 0 0 0 0 0 0 0 0 0 0 0 0 0 0 0 0 0 0 0 0 0
0 0 0 0 0 0 0 0 0 0 0 0 0 0 0 0 0 0 0 0 0 0 -0 0 0 0 0 0 0 0 0 0 0 0 0 0 0 0 0 0 0 0 0 0
0 0 0 0 0 0 0 0 0 0 0 0 0 0 0 0 0 0 0 0 0 0 -0 -0 0 0 0 0 0 0 0 0 0 0 0 0 0 0 0 0 0 0 0 0
0 0 0 0 -0 0 0 0 0 0 0 0 0 0 0 0 0 0 0 0 0 0 -0 -0 0 0 0 0 0 0 0 0 0 0 0 0 0 0 0 0 0 0 0 0
0 0 0 -0 -0 0 0 0 0 0 0 0 0 0 0 0 0 0 0 0 0 0 0 0 0 0 0 0 0 0 0 0 0 0 0 0 0 0 0 0 0 0 0 0
0 0 0 0 0 0 0 0 0 0 0 0 0 0 0 0 0 0 0 0 0 0 0 0 0 0 0 0 0 0 0 0 0 0 0 0 0 0 0 0 0 0 0 0
0 0 0 0 0 0 0 0 0 0 0 0 0 0 0 0 0 0 0 0 0 0 0 0 0 0 0 0 0 0 0 0 0 0 0 0 0 0 0 0 0 0 0 0
0 0 0 0 0 0 0 0 0 0 0 0 0 0 0 0 0 0 0 0 0 0 0 0 0 0 0 0 0 0 0 0 0 0 0 0 0 0 0 0 0 0 0 0
0 0 0 0 0 0 0 0 0 0 0 0 0 0 0 0 0 0 0 0 0 0 0 0 0 0 0 0 0 0 0 0 0 0 0 0 0 0 0 0 0 0 0 0
0 0 0 0 0 0 0 0 0 0 0 0 0 0 0 0 0 0 0 0 0 0 0 0 0 0 0 0 0 0 0 0 0 0 0 0 0 0 0 0 0 0 0 0
0 0 0 0 0 0 0 0 0 0 0 0 0 0 0 0 0 0 0 0 0 0 0 0 0 0 0 0 0 0 0 0 0 0 0 0 0 0 0 0 0 0 0 0
0 0 0 0 0 0 0 0 0 0 0 0 0 0 0 0 0 0 0 0 0 0 0 0 0 0 0 0 0 0 0 0 0 0 0 0 0 0 0 0 0 0 0 0
0 0 0 0 0 0 0 0 0 0 0 0 0 0 0 0 0 0 0 0 0 0 0 0 0 0 0 0 0 0 0 0 0 0 0 0 0 0 0 0 0 0 0 0
0 0 0 0 0 0 0 0 0 0 0 0 0 0 0 0 0 0 0 0 0 0 0 0 0 0 0 0 0 0 0 0 0 0 0 0 0 0 0 0 0 0 0 0
0 0 0 0 0 0 0 0 0 0 0 0 0 0 0 0 0 0 0 0 0 0 0 0 0 0 0 0 0 0 0 0 0 0 0 0 0 0 0 0 0 0 0 0
0 0 0 0 0 0 0 0 0 0 0 0 0 0 0 0 0 0 0 0 0 0 0 0 0 0 0 0 0 0 0 0 0 0 0 0 0 0 0 0 0 0 0 0
0 0 0 0 0 0 0 0 0 0 0 0 0 0 0 0 0 0 0 0 0 0 0 0 0 0 0 0 0 0 0 0 0 0 0 0 0 0 0 0 0 0 0 0
0 0 0 0 0 0 0 0 0 -0 0 0 0 0 0 0 0 0 0 0 0 0 0 0 0 0 0 0 0 0 0 0 0 0 0 0 0 0 0 0 0 0 0 0
0 0 0 0 0 0 0 0 0 0 0 0 0 0 0 0 0 0 0 0 0 0 0 0 0 0 0 0 0 0 0 0 0 0 0 0 0 0 0 0 0 0 0 0
0 0 0 0 0 0 0 0 0 0 0 0 0 0 0 0 0 0 0 0 0 0 0 0 0 0 0 0 0 0 0 0 0 0 0 0 0 0 0 0 0 0 0 0
0 0 0 0 0 0 0 0 0 0 0 0 0 0 0 0 0 0 0 0 0 0 0 0 0 0 0 0 0 0 0 0 0 0 0 0 0 0 0 0 0 0 0 0
0 0 0 0 0 0 0 0 0 0 0 0 0 0 0 0 0 0 0 0 0 0 0 0 0 0 0 0 0 0 0 0 0 0 0 0 0 0 0 0 0 0 0 0
0 0 0 0 0 0 0 0 0 0 0 0 0 0 0 0 0 0 0 0 0 0 0 0 0 0 0 0 0 0 0 0 0 0 0 0 0 0 0 0 0 0 0 0
Wind_Speed
9 8 6 9 10 8 9 9 9 10 10 11 8 7 6 4 3 2 2 2 2 3 2 2 1 1 2 2 2 2 2 2 2 2 2 2 3 3 4 4 4 4 3 3
7 7 7 11 11 11 12 10 11 11 13 9 5 3 3 4 4 4 3 3 3 3 2 2 2 2 2 2 2 2 2 1 1 1 1 1 1 2 3 3 3 3 3 4
7 5 5 11 11 11 9 8 9 12 12 5 3 4 6 6 6 5 4 3 3 3 3 3 3 3 2 2 2 2 1 1 1 1 1 1 1 1 2 2 3 3 3 4
4 2 10 10 4 8 10 11 10 9 6 5 6 4 3 3 5 4 3 3 3 2 2 2 2 1 1 1 2 2 1 1 1 1 1 1 1 1 1 1 2 2 3 3
4 6 10 8 4 4 6 8 6 8 6 3 1 1 2 1 2 3 3 3 3 2 2 2 1 2 2 1 1 1 1 1 1 1 1 1 1 1 1 1 1 2 2 2
5 6 9 6 4 4 3 7 4 4 5 4 3 2 4 2 0 0 1 1 1 1 2 2 1 2 2 1 1 1 1 1 1 1 1 1 2 1 1 1 1 1 1 2
7 8 9 5 4 2 3 6 3 3 4 5 5 5 3 1 1 1 2 2 2 2 2 1 1 2 2 1 0 1 1 1 1 0 1 1 1 1 1 1 1 1 1 1
5 7 9 3 1 2 5 3 2 2 1 2 2 1 2 2 2 2 3 3 3 3 2 1 2 3 2 1 1 1 1 1 1 1 1 1 0 1 1 0 1 1 1 2
6 6 4 1 2 3 1 1 2 1 1 2 3 3 2 2 2 2 2 2 2 3 2 2 2 2 2 1 1 1 1 1 1 2 1 1 1 1 1 1 0 1 1 2
5 6 6 6 4 4 3 2 2 1 1 2 3 2 2 2 2 2 2 2 2 3 3 2 2 2 1 0 1 1 1 1 1 2 2 2 1 1 1 1 1 1 1 2
7 7 6 5 3 3 3 3 2 2 2 2 3 2 2 2 2 2 2 2 2 2 2 1 2 2 2 1 1 1 1 1 1 1 1 2 2 1 1 2 2 2 2 2
7 6 4 6 5 3 2 2 1 1 2 2 2 2 2 2 2 2 2 2 3 2 2 2 2 2 2 2 1 1 1 2 1 1 1 1 2 3 4 3 4 5 5 4
6 5 5 6 4 3 2 2 1 1 1 2 2 2 2 2 2 2 2 3 2 2 2 2 2 2 3 2 1 1 1 1 1 1 1 1 2 2 3 4 5 5 5 5
5 3 4 3 3 2 1 1 1 2 2 2 2 2 2 3 2 2 2 1 1 1 2 2 2 2 3 2 1 1 1 1 1 1 1 1 2 2 2 3 4 3 4 6
3 2 3 2 2 1 1 1 2 2 2 3 2 2 2 2 2 1 1 1 2 2 2 2 2 3 3 2 1 1 1 1 1 1 1 2 2 2 2 3 3 3 3 4
4 3 2 2 2 2 2 2 1 1 2 2 2 2 2 2 2 2 2 2 2 2 2 2 2 3 3 2 2 1 1 3 2 2 2 2 2 2 2 3 3 3 3 3
3 3 3 2 3 3 2 2 1 1 1 2 2 2 2 3 2 2 2 2 2 1 2 2 2 3 3 2 2 1 1 2 4 2 2 2 2 3 3 3 3 4 4 4
2 2 2 1 1 2 2 2 2 2 2 2 2 2 2 2 1 1 1 1 2 2 2 2 2 3 3 3 2 1 1 2 2 2 2 2 3 3 3 3 4 4 4 4
4 3 3 3 2 2 2 2 2 2 2 2 2 1 1 1 0 1 1 2 2 2 3 3 5 3 3 3 3 1 1 2 2 3 3 4 4 3 3 4 4 4 4 4
5 5 5 5 4 3 2 2 2 2 2 2 1 2 2 1 1 1 1 1 1 2 2 3 3 2 3 3 4 2 2 2 2 3 3 3 3 4 4 4 4 4 4 4
5 5 5 4 4 4 4 3 3 2 2 2 2 1 1 2 2 1 1 2 3 2 2 4 3 3 3 3 4 2 2 2 2 3 3 3 4 4 4 4 4 4 4 4
5 5 5 5 5 5 4 3 3 3 3 3 2 1 1 2 2 2 1 2 3 5 4 2 2 4 5 5 2 2 2 2 3 3 3 3 4 4 4 4 4 4 4 4
5 5 5 5 4 4 4 4 3 3 2 2 2 2 1 2 2 1 3 2 2 5 4 3 5 8 8 4 2 2 3 3 3 3 3 3 4 4 4 5 4 4 4 4
5 5 5 4 4 4 4 4 3 2 2 2 2 2 2 2 2 1 2 5 6 7 3 5 8 8 7 2 2 3 3 3 3 3 3 4 4 4 4 4 4 4 4 5
4 4 4 4 4 3 4 4 4 3 3 2 3 3 2 1 2 3 3 3 6 6 4 5 8 8 4 3 3 3 3 3 4 4 3 4 4 4 4 4 4 5 4 4
4 3 3 3 3 3 3 3 3 3 3 3 3 3 2 2 2 3 3 3 4 6 4 3 4 5 3 3 3 3 3 4 4 4 4 4 5 5 4 4 5 4 4 4
4 3 3 3 3 4 3 3 3 3 3 3 4 3 3 3 3 3 3 3 4 4 4 4 3 3 4 4 4 4 4 4 4 4 4 4 4 4 5 5 4 4 4 4
Wind_Direction
258 265 260 259 261 246 227 222 227 246 247 258 249 241 240 235 210 190 196 210 202 205 201 199 212 220 201 201 197 181 168 196 218 238 225 201 200 197 191 186 192 191 193 204
276 265 265 269 260 249 244 238 239 254 262 257 253 232 238 222 196 196 210 219 209 199 193 198 208 217 209 205 197 175 180 227 260 280 284 255 219 194 185 189 191 190 201 208
268 283 302 266 239 225 231 225 215 237 249 250 240 225 223 210 194 199 205 211 209 205 203 209 211 207 202 197 178 169 184 223 242 254 278 279 267 177 191 198 193 204 213 213
260 273 245 248 223 214 228 240 229 238 241 224 227 234 227 203 189 201 202 199 205 205 202 204 198 191 178 165 159 162 177 219 237 245 267 280 263 220 229 220 208 217 225 224
215 242 265 280 259 219 223 254 241 234 239 231 200 52 314 258 208 205 199 194 197 196 183 168 171 172 143 130 135 153 197 229 245 228 234 250 254 251 258 242 245 237 231 221
210 233 247 257 278 256 201 260 271 235 225 204 148 193 251 249 319 69 105 122 142 138 128 136 156 141 134 138 136 215 249 260 271 247 226 240 247 253 261 234 244 246 253 240
223 238 259 281 304 11 189 258 299 245 225 198 198 216 211 148 87 94 88 81 91 99 103 123 123 112 114 108 200 269 312 359 357 296 251 250 260 271 252 243 224 228 254 270
209 229 252 299 69 199 246 301 304 299 243 201 196 118 106 105 97 95 84 75 86 91 73 58 89 102 93 56 329 22 51 38 2 344 334 350 340 323 307 226 243 271 286 297
210 231 277 300 244 268 308 313 313 337 359 122 117 116 110 99 93 88 87 87 91 98 79 51 68 100 99 345 16 56 61 40 8 5 2 1 356 343 344 328 273 278 279 286
254 270 292 303 306 316 311 297 320 33 52 97 108 113 104 98 88 80 73 81 90 94 85 47 32 54 80 26 43 72 58 24 23 25 10 8 0 352 344 314 293 275 267 272
260 280 298 298 296 300 318 344 19 27 46 102 110 104 105 100 91 83 72 69 82 90 86 47 29 28 17 21 69 71 54 36 23 19 11 4 357 338 314 284 262 272 273 264
251 260 260 276 285 288 293 308 329 16 45 67 101 112 97 96 95 93 81 73 71 67 62 37 31 19 3 5 48 72 43 23 8 360 0 356 351 351 348 328 317 308 297 285
255 268 267 274 284 291 277 287 352 53 97 91 75 105 106 101 93 89 81 71 67 56 41 31 30 11 351 351 20 53 34 344 342 345 338 329 325 326 330 339 337 326 316 306
273 276 278 280 282 296 300 318 45 54 67 93 88 86 97 94 88 80 67 45 42 44 35 33 26 355 339 349 18 17 348 336 336 311 302 300 299 301 302 306 317 321 323 318
308 282 258 289 340 4 36 65 70 65 70 68 72 84 96 100 97 81 53 41 51 45 29 30 25 350 343 354 12 360 347 334 324 307 300 293 293 296 296 296 297 304 311 317
328 352 8 34 24 27 44 62 80 62 72 81 75 67 81 97 96 74 49 47 57 26 5 10 359 340 343 356 4 359 349 337 335 323 316 314 309 304 302 301 300 301 301 301
10 4 9 24 24 30 40 56 74 75 74 78 76 67 73 79 73 59 41 36 38 4 345 350 340 342 351 353 356 346 339 332 332 328 316 309 308 303 298 294 292 293 292 294
2 0 12 11 15 21 21 35 46 48 56 56 59 65 61 65 58 29 16 26 28 9 353 349 350 353 356 350 344 335 331 322 320 316 313 311 308 300 295 291 289 290 293 300
19 21 23 22 23 43 38 32 34 38 43 55 58 45 37 48 32 7 19 24 11 348 338 346 346 353 343 336 336 324 320 320 321 317 313 311 314 305 299 297 294 292 294 297
17 24 31 30 30 35 28 19 23 30 37 56 58 44 27 10 14 16 22 350 308 290 305 329 340 338 329 321 327 320 314 308 304 305 308 306 303 301 299 296 293 292 294 294
13 20 25 24 23 23 19 15 20 19 20 38 51 37 2 345 350 354 2 327 318 320 324 331 332 317 314 317 324 316 308 306 303 299 300 303 302 300 299 298 297 295 294 294
9 17 17 19 22 14 9 17 24 23 23 24 22 17 8 346 341 339 308 281 308 329 334 321 315 318 322 326 318 306 301 296 292 290 290 294 296 298 299 298 295 294 294 292
7 12 14 12 11 4 5 14 17 22 20 11 1 354 341 321 318 319 319 320 320 326 328 314 319 324 328 329 311 302 297 292 289 287 288 288 289 291 292 292 291 290 289 287
8 9 7 5 12 19 11 2 4 9 7 356 350 342 333 330 328 307 293 317 326 326 325 321 327 328 331 325 305 297 293 290 287 286 286 286 288 289 289 289 290 290 286 284
3 3 5 8 11 4 355 354 360 2 360 357 351 344 334 313 298 309 313 313 321 327 322 324 328 330 329 310 303 298 293 289 291 294 290 291 290 288 286 286 286 288 286 284
0 356 352 352 348 345 346 351 352 348 347 344 338 332 328 323 312 310 311 311 311 319 317 308 310 317 312 307 303 302 299 301 305 300 292 291 289 287 286 286 286 285 283 279
357 353 351 354 355 353 349 347 345 339 337 329 323 327 328 326 324 322 318 315 315 314 310 308 307 306 305 305 303 301 299 297 295 293 291 289 288 286 287 288 287 284 283 279